GPS BIIR-13

Last updated on Mon Oct 13 2025 00:02:33 GMT+0000 (Coordinated Universal Time)

1 28474U 04045A 25285.00739219 -.00000080 00000+0 00000+0 0 9998 2 28474 55.2690 334.8903 0168740 306.8414 50.6846 2.00566520153448
UTC large
Height (km)
Speed (km/s)
/
Latitude / Longitude
Inclination (degrees)
Orbital Period (minutes)
Azimuth
Elevation
Range (km)
Doppler Factor

Next 0 passes for location: London (51.5072 / 0.1276)

Sorry there are no passes over London.